View from above orbital plane
|
View from above satellite
|
Ground track
|
The orbit data is extracted from the following two-line orbital elements,
1 40014U 14033E 21058.57440137 .00000241 00000-0 27250-4 0 9994
2 40014 98.0995 34.2957 0031508 165.8870 194.3231 14.95654471365141
Epoch (UTC): | 27 February 2021 13:47:08 |
Eccentricity: | 0.0031508 |
inclination: | 98.0995° |
perigee height: | 558 km |
apogee height: | 602 km |
right ascension of ascending node: | 34.2957° |
argument of perigee: | 165.8870° |
revolutions per day: | 14.95654471 |
mean anomaly at epoch: | 194.3231° |
orbit number at epoch: | 36514 |
The dashed part of the orbit path shows where the satellite is in the earth's shadow,
|
|